• Processing (Info)

  • MPEC 2023-V205 : 2023 VC7

    The following Minor Planet Electronic Circular may be linked-to from your own Web pages, but must not otherwise be redistributed electronically.

    A form allowing access to any MPEC is at the bottom of this page.


    Read MPEC 2023-V204 Read MPEC 2023-V206


    M.P.E.C. 2023-V205                            Issued 2023 November 11, 20:47 UT
    
         The Minor Planet Electronic Circulars contain information on unusual
             minor planets, routine data on comets and natural satellites,
             and occasional editorial announcements.  They are published
        on behalf of Division F of the International Astronomical Union by the
              Minor Planet Center, Smithsonian Astrophysical Observatory,
                              Cambridge, MA 02138, U.S.A.
    			  
                 Prepared using the Tamkin Foundation Computer Network
    
                                  MPC@CFA.HARVARD.EDU
                URL https://www.minorplanetcenter.net/    ISSN 1523-6714
    
                                    2023 VC7                                 
    
    
    Observations:
         K23V07C* C2023 11 10.31821302 41 16.370+25 30 40.25         20.65wXEV205F52
         K23V07C  C2023 11 10.33113402 41 09.995+25 30 38.67         20.73wXEV205F52
         K23V07C  C2023 11 10.34403902 41 03.632+25 30 36.84         20.93wXEV205F52
         K23V07C  C2023 11 10.35701202 40 57.185+25 30 34.61         20.60wXEV205F52
         K23V07C mC2023 11 10.41712102 40 21.389+25 29 37.10         20.71GVEV205I52
         K23V07C mC2023 11 10.41783502 40 21.032+25 29 36.67         21.18GVEV205I52
         K23V07C mC2023 11 10.41854902 40 20.712+25 29 36.38         20.85GVEV205I52
         K23V07C mC2023 11 10.41926302 40 20.320+25 29 35.99         20.87GVEV205I52
         K23V07C 1C2023 11 10.75742 02 37 57.15 +25 26 59.3          20.3 VXEV205033
         K23V07C 1C2023 11 10.75886 02 37 56.44 +25 26 59.0          20.4 VXEV205033
         K23V07C 1C2023 11 10.76031 02 37 55.77 +25 26 59.0          20.7 VXEV205033
         K23V07C KC2023 11 10.90246002 36 45.574+25 26 22.60         20.4 GVEV205J95
         K23V07C KC2023 11 10.90651502 36 43.507+25 26 20.69         20.1 GVEV205J95
         K23V07C KC2023 11 10.91255302 36 40.430+25 26 18.96         20.1 GVEV205J95
         K23V07C $C2023 11 10.92146902 36 38.717+25 27 01.78         20.6 GVEV205J04
         K23V07C $C2023 11 10.92502202 36 36.848+25 27 01.30         20.4 GVEV205J04
         K23V07C $C2023 11 10.92857102 36 34.989+25 27 00.67         20.4 GVEV205J04
         K23V07C KC2023 11 10.96764 02 36 10.65 +25 26 12.3                VEV205204
         K23V07C KC2023 11 10.98486 02 36 01.58 +25 26 04.9                VEV205204
         K23V07C KC2023 11 10.99567 02 35 55.90 +25 25 59.9          20.5 GVEV205204
         K23V07C KC2023 11 11.05469 02 35 24.58 +25 25 31.0          20.4 GVEV205104
         K23V07C KC2023 11 11.06260 02 35 20.50 +25 25 26.1          20.2 GVEV205104
         K23V07C KC2023 11 11.15381102 34 43.56 +25 25 08.0          20.9 GVEV205H21
         K23V07C KC2023 11 11.15940302 34 40.50 +25 25 06.1          20.9 GVEV205H21
         K23V07C KC2023 11 11.16359802 34 38.25 +25 25 04.8          20.8 GVEV205H21
         K23V07C KC2023 11 11.84262002 28 47.39 +25 19 09.9          20.6 GVEV205L01
         K23V07C KC2023 11 11.84514802 28 45.92 +25 19 09.3          20.5 GVEV205L01
         K23V07C KC2023 11 11.84767802 28 44.44 +25 19 08.4          20.7 GVEV205L01
         K23V07C KC2023 11 11.85028002 28 42.90 +25 19 06.8          20.4 GVEV205L01
    
    Observer details:
    033 Karl Schwarzschild Observatory, Tautenburg.  Observers S. Melnikov, C.
        Hogner, F. Ludwig, M. Hartmann, B. Stecklum.  Measurer B. Stecklum.
        1.34-m f/3 Schmidt + CCD.
    104 San Marcello Pistoiese.  Observers P. Bacci, M. Maestripieri.  Measurer P.
        Bacci.  0.60-m f/4.0 reflector + CCD.
    204 Schiaparelli Observatory.  Observers L. Buzzi, G. Galli.  0.84-m f/3.5
        reflector + CCD.
    F52 Pan-STARRS 2, Haleakala.  Observers J. Bulger, T. Lowe, P. Minguez, A.
        Schultz, I. Smith.  Measurers K. Chambers, T. de Boer, J. Fairlamb, H.
        Gao, M. Huber, C.-C. Lin, E. Magnier, Y. Ramanjooloo, R. Wainscoat, R.
        Weryk.  1.8-m Ritchey-Chretien + CCD.
    H21 Astronomical Research Observatory, Westfield.  Observer R. Holmes.
        Measurers T. Linder, R. Holmes, L. Horn.  0.76-m f/3.0 astrograph + CCD.
    I52 Steward Observatory, Mt. Lemmon Station.  Observer H. Groeller.  Measurers
        E. C. Beshore, D. Fay, J. B. Fazekas, D. C. Fuls, A. R. Gibbs, A. D.
        Grauer, H. Groeller, J. K. Hogan, R. A. Kowalski, S. M. Larson, G. J.
        Leonard, D. Rankin, R. L. Seaman, F. C. Shelly, K. W. Wierzchos.  1.0-m
        prime focus + CCD.
    J04 ESA Optical Ground Station, Tenerife.  Observers D. Abreu, F. Ocana, M.
        Micheli, L. Conversi.  Measurers F. Ocana, M. Micheli, R. Kresken.
        1.0-m f/4.4 reflector + CCD.
    J95 Great Shefford.  Observer P. Birtwhistle.  0.41-m f/6.3 Schmidt-Cassegrain
        + CCD.
    L01 Visnjan Observatory, Tican.  Observer K. Korlevic.  1.0-m f/2.9 reflector
        + CCD.
    
    Orbital elements:
    2023 VC7                                                 Earth MOID = 0.0008 AU
    Epoch 2023 Sept. 13.0 TT = JDT 2460200.5                Veres                   
    M 221.86990              (2000.0)            P               Q                  
    n   0.96974551     Peri.  254.10028     -0.95638947     -0.29167301             
    a   1.0108752      Node   268.93956     +0.27363530     -0.87586975             
    e   0.3034982      Incl.    0.89890     +0.10219052     -0.38442038             
    P   1.02           H   25.98          G   0.15           U   7                  
    Residuals in seconds of arc
    231110 F52  0.2+  0.2+    231110 033  0.2+  0.1+    231111 104  0.1-  0.3-
    231110 F52  0.3-  0.1+    231110 J95  0.3-  0.4+    231111 104  0.6+  0.5-
    231110 F52  0.1-  0.1+    231110 J95  0.1-  0.4-    231111 H21  0.2+  0.2+
    231110 F52  0.1-  0.1+    231110 J95  0.3+  0.3-    231111 H21  0.3-  0.1+
    231110 I52  0.0   0.0     231110 J04  0.1+  0.2-    231111 H21  0.0   0.2+
    231110 I52  0.1-  0.1-    231110 J04  0.0   0.0     231111 L01  0.0   0.4-
    231110 I52  0.2+  0.0     231110 J04  0.2+  0.1+    231111 L01  0.1+  0.1+
    231110 I52  0.4-  0.0     231110 204  0.1+  0.0     231111 L01  0.1+  0.3+
    231110 033  0.1-  0.0     231110 204  0.1-  0.2+    231111 L01  0.1-  0.2-
    231110 033  0.2-  0.1-    231110 204  0.1+  0.3+
    
    Ephemeris:
    2023 VC7                 a,e,i = 1.01, 0.30, 1                   q = 0.7041
    Date    TT    R. A. (2000) Decl.     Delta      r    Elong.  Phase     V
    2023 10 12    03 38 36.2 +23 44 27   0.2304  1.1840   140.0    32.8    24.5
    ...
    2023 10 27    03 31 35.7 +25 00 13   0.1409  1.1239   155.7    21.4    23.0
    ...
    2023 11 04    03 13 28.2 +25 31 00   0.09854 1.0879   166.1    12.6    21.9
    ...
    2023 11 10    02 43 29.7 +25 32 01   0.06950 1.0592   170.7     8.7    20.9
    2023 11 11    02 35 56.3 +25 26 47   0.06494 1.0542   169.7     9.6    20.8
    2023 11 12    02 27 17.7 +25 18 33   0.06049 1.0493   168.0    11.3    20.7
    ...
    2023 11 18    00 57 50.6 +21 49 08   0.03701 1.0189   144.1    34.6    20.3
    ...
    2023 11 26    20 42 02.5 -04 05 22   0.03000 0.9769    69.3   109.0    22.4
    ...
    2023 12 11    17 35 55.6 -21 35 30   0.08986 0.8955     6.3   173.1
    
    M. P. C. Staff               (C) Copyright 2023 MPC           M.P.E.C. 2023-V205
    


    Read MPEC 2023-V204 Read MPEC 2023-V206


    MPEC number:

    Enter an MPEC number in one of the following forms:

    • 1997-B01 (the full form)
    • J97B01 (the packed version of the full form)
    • B01 (the abbreviated form)